256  
ASUS43 KOAX 161210  
RWRNE  
 
WEATHER ROUNDUP FOR NEBRASKA  
NATIONAL WEATHER SERVICE OMAHA NE  
700 AM CDT TUE JUL 16 2019  
 
NOTES: SATELLITE DATA IS BEING USED TO AUGMENT CLOUD COVER ABOVE  
12000 FEET.  
"FAIR" INDICATES FEW OR NO CLOUDS BELOW 12,000 FEET WITH NO  
SIGNIFICANT WEATHER AND/OR S TO VISIBILITY
.  
 
 
NEZ001>004-019>022-054>056-161300-  
NEBRASKA PANHANDLE  
 
CITY SKY/WX TMP DP RH WIND PRES REMARKS
 
SCOTTSBLUFF FAIR 62 50 65 SE8 30.02S  
6HR MIN TEMP: 62; 6HR MAX TEMP: 65;  
 
ALLIANCE FAIR 60 58 92 SE7 30.00F  
6HR MIN TEMP: 58; 6HR MAX TEMP: 63;  
 
CHADRON FAIR 58 56 93 CALM 29.99F  
6HR MIN TEMP: 58; 6HR MAX TEMP: 67; 6HR PCP: TRACE;  
 
GORDON FAIR 60 59 94 SW5 29.99F  
6HR MIN TEMP: 60; 6HR MAX TEMP: 65; 6HR PCP: 0.03;  
 
KIMBALL FAIR 59 58 96 SE5 30.09S  
SIDNEY FAIR 57 55 93 SE6 30.09R  
6HR MIN TEMP: 55; 6HR MAX TEMP: 64;  
 

 
 
NEZ057>060-069>072-079>082-161300-  
SOUTHWEST NEBRASKA  
 
CITY SKY/WX TMP DP RH WIND PRES REMARKS
 
NORTH PLATTE FAIR 63 60 90 CALM 30.00R  
6HR MIN TEMP: 63; 6HR MAX TEMP: 75; 6HR PCP: 0.01;  
 
IMPERIAL FAIR 65 59 81 E6 30.01R  
6HR MIN TEMP: 65; 6HR MAX TEMP: 75;  
 
LEXINGTON MOCLDY 67 64 89 SE8 29.97S  
MCCOOK FAIR 68 65 90 NE14 29.98R  
6HR MIN TEMP: 68; 6HR MAX TEMP: 80;  
 
OGALLALA FAIR 64 62 93 CALM 30.04R  

 
 
NEZ005>010-023>029-035>040-094-161300-  
NORTH CENTRAL NEBRASKA  
 
CITY SKY/WX TMP DP RH WIND PRES REMARKS
 
VALENTINE FAIR 65 60 84 NW5 29.97S  
6HR MIN TEMP: 64; 6HR MAX TEMP: 68; 6HR PCP: 0.05;  
 
AINSWORTH FAIR 64 64 100 CALM 29.96F  
BROKEN BOW MOCLDY 66 65 96 W8 29.98R  
6HR MIN TEMP: 66; 6HR MAX TEMP: 76; 6HR PCP: 0.90;  
 
O'NEILL FAIR 66 65 96 CALM 29.92F  
ORD LGT RAIN 67 64 90 S9 29.92R  
6HR MIN TEMP: 66; 6HR MAX TEMP: 71; 6HR PCP: 1.27;  
 
THEDFORD FAIR 64 62 93 S10 29.98F  

 
 
NEZ041-046>049-061>064-073>077-083>087-161300-  
SOUTH CENTRAL NEBRASKA  
 
CITY SKY/WX TMP DP RH WIND PRES REMARKS
 
GRAND ISLAND MOCLDY 68 65 90 E13 29.94F  
6HR MIN TEMP: 67; 6HR MAX TEMP: 77; 6HR PCP: 1.07;  
 
AURORA LGT RAIN 66 66 100 N14 29.98S  
HASTINGS FAIR 68 65 90 NE8 29.98F  
6HR MIN TEMP: 68; 6HR MAX TEMP: 75; 6HR PCP: TRACE;  
 
HEBRON CLOUDY 73 70 91 N8 30.00R THUNDER  
HOLDREGE FAIR 68 66 94 E9 29.98S  
KEARNEY FAIR 68 64 87 E10 29.96F  
YORK LGT RAIN 68 66 94 N6 29.97F  

 
 
NEZ011>018-030>034-042>045-161300-  
NORTHEAST NEBRASKA  
 
CITY SKY/WX TMP DP RH WIND PRES REMARKS
 
NORFOLK LGT RAIN 68 66 93 SW6 29.90F  
6HR MIN TEMP: 68; 6HR MAX TEMP: 76; 6HR PCP: 0.17;  
 
ALBION LGT RAIN 69 65 90 CALM 29.91F  
BLAIR LGT RAIN 71 69 95 SW7 29.95R  
COLUMBUS CLOUDY 69 67 93 W7 29.96F FOG  
FREMONT CLOUDY 72 71 95 S3 29.94S  
TEKAMAH FAIR 71 68 90 SW10 29.91R  
6HR MIN TEMP: 70; 6HR MAX TEMP: 78; 6HR PCP: 0.19;  
 
WAYNE FAIR 70 65 83 SW7 29.89R  

 
 
NEZ050>053-065>068-078-088>093-161300-  
SOUTHEAST NEBRASKA  
 
CITY SKY/WX TMP DP RH WIND PRES REMARKS
 
LINCOLN FAIR 74 70 87 W3 29.96R  
6HR MIN TEMP: 72; 6HR MAX TEMP: 77; 6HR PCP: 0.32;  
 
OMAHA EPPLEY TSTM 72 71 97 CALM 29.93F  
6HR MIN TEMP: 71; 6HR MAX TEMP: 80; 6HR PCP: 0.53;  
 
BEATRICE LGT RAIN 74 71 89 NW17G24 29.98R  
FALLS CITY FAIR 69 67 93 CALM 29.92R  
6HR MIN TEMP: 67; 6HR MAX TEMP: 73;  
 
NEBRASKA CITY TSTM 71 69 96 W3 29.97R  
PLATTSMOUTH LGT RAIN 71 71 98 SW5 29.94F  

 
 
NEZ044-045-051>053-067-161300-  
OMAHA AREA  
 
CITY SKY/WX TMP DP RH WIND PRES REMARKS
 
OMAHA EPPLEY TSTM 72 71 97 CALM 29.93F  
6HR MIN TEMP: 71; 6HR MAX TEMP: 80; 6HR PCP: 0.53;  
 
BLAIR LGT RAIN 71 69 95 SW7 29.95R  
FREMONT CLOUDY 72 71 95 S3 29.94S  
MILLARD RAIN 73 72 96 CALM 29.94S  
OFFUTT AFB PTCLDY 72 72 100 CALM 29.96F  
PLATTSMOUTH LGT RAIN 71 71 98 SW5 29.94F  
WAHOO FAIR 72 70 95 CALM 29.95S  

 
 
 
CLICK HERE TO GO TO PREVIOUS BULLETINS.

The Nexlab NE Page Main Text Page